OE3AOG Weather Reports


time (UTC)temp
C
wind
direction
speed
KPH
gust
KPH
rain 1hr
cm
rain 24hr
cm
rain mn
cm
humidity
%
barometer
mb
20260505235523 12 44 1.6 4.8 0.00 0.00 0.00 69 1005.7
20260505234531 12 55 1.6 4.8 0.00 0.00 0.00 69 1005.6
20260505233522 12 98 0.0 3.2 0.00 0.00 0.00 70 1005.5
20260505232531 12 142 1.6 3.2 0.00 0.00 0.00 70 1005.4
20260505231523 12 120 1.6 3.2 0.00 0.00 0.00 69 1005.2
20260505230531 13 111 1.6 4.8 0.00 0.00 0.00 68 1005.2
20260505225522 13 133 1.6 4.8 0.00 0.00 0.00 67 1005.2
20260505224530 13 130 1.6 4.8 0.00 0.00 0.00 66 1005.1
20260505223523 13 124 1.6 3.2 0.00 0.00 0.00 64 1005.0
20260505222523 14 104 0.0 3.2 0.00 0.00 0.00 63 1004.8
20260505221531 13 140 1.6 4.8 0.00 0.00 0.00 63 1004.8
20260505220523 13 135 1.6 4.8 0.00 0.00 0.00 63 1004.8
20260505215531 13 141 1.6 3.2 0.00 0.00 0.00 63 1004.6
20260505214523 14 39 1.6 4.8 0.00 0.00 0.00 62 1004.6
20260505213531 14 110 3.2 4.8 0.00 0.00 0.00 61 1004.5
20260505212531 16 23 1.6 6.4 0.00 0.00 0.00 57 1004.4
20260505211523 17 136 0.0 6.4 0.00 0.00 0.00 52 1004.3
20260505210531 17 154 3.2 8.0 0.00 0.00 0.00 51 1004.1
20260505205523 17 164 4.8 9.7 0.00 0.00 0.00 51 1004.0
20260505204531 17 167 8.0 14.5 0.00 0.00 0.00 50 1003.8
20260505203522 17 173 8.0 16.1 0.00 0.00 0.00 50 1003.7
20260505202531 17 168 8.0 16.1 0.00 0.00 0.00 50 1003.7
20260505201524 17 175 8.0 16.1 0.00 0.00 0.00 50 1003.6
20260505200531 18 176 8.0 16.1 0.00 0.00 0.00 50 1003.6
20260505195523 18 178 8.0 17.7 0.00 0.00 0.00 49 1003.6
20260505194515 18 175 9.7 20.9 0.00 0.00 0.00 49 1003.7
20260505193524 18 176 9.7 19.3 0.00 0.00 0.00 49 1003.5
20260505192531 18 170 8.0 20.9 0.00 0.00 0.00 49 1003.4
20260505191523 18 177 9.7 25.7 0.00 0.00 0.00 48 1003.4
20260505190532 18 175 9.7 20.9 0.00 0.00 0.00 48 1003.3
20260505185523 18 177 9.7 20.9 0.00 0.00 0.00 47 1003.4
20260505184524 19 181 12.9 25.7 0.00 0.00 0.00 46 1003.4
20260505183531 19 169 9.7 20.9 0.00 0.00 0.00 46 1003.3
20260505182524 19 170 11.3 30.6 0.00 0.00 0.00 46 1003.2
20260505181532 20 160 12.9 29.0 0.00 0.00 0.00 45 1003.2
20260505180523 20 167 11.3 22.5 0.00 0.00 0.00 45 1003.4
20260505175530 20 166 12.9 24.1 0.00 0.00 0.00 44 1003.3
20260505174524 20 172 11.3 24.1 0.00 0.00 0.00 43 1003.3
20260505173523 20 163 12.9 27.4 0.00 0.00 0.00 43 1003.3
20260505172531 20 167 11.3 30.6 0.00 0.00 0.00 42 1003.5
20260505171523 21 156 11.3 22.5 0.00 0.00 0.00 41 1003.5
20260505170531 21 156 9.7 27.4 0.00 0.00 0.00 41 1003.5
20260505165532 21 175 12.9 30.6 0.00 0.00 0.00 40 1003.5
20260505164523 22 163 12.9 32.2 0.00 0.00 0.00 39 1003.6
20260505163531 22 176 14.5 33.8 0.00 0.00 0.00 38 1003.8
20260505162523 22 157 11.3 30.6 0.00 0.00 0.00 38 1003.9
20260505161531 23 164 16.1 32.2 0.00 0.00 0.00 38 1004.1
20260505160524 23 174 11.3 27.4 0.00 0.00 0.00 38 1004.1
20260505152531 23 177 12.9 30.6 0.00 0.00 0.00 37 1004.5
20260505151523 23 167 16.1 33.8 0.00 0.00 0.00 37 1004.6
20260505150531 23 162 12.9 33.8 0.00 0.00 0.00 36 1004.6
20260505140515 26 163 14.5 35.4 0.00 0.00 0.00 29 1004.3
20260505124524 26 173 12.9 32.2 0.00 0.00 0.00 26 1004.8
20260505123516 27 166 12.9 30.6 0.00 0.00 0.00 25 1004.9
20260505122524 26 147 14.5 35.4 0.00 0.00 0.00 25 1005.0
20260505121531 27 163 14.5 37.0 0.00 0.00 0.00 24 1005.1
20260505120524 27 176 14.5 30.6 0.00 0.00 0.00 24 1005.2
20260505115516 27 178 14.5 30.6 0.00 0.00 0.00 24 1005.4
20260505114523 26 174 14.5 33.8 0.00 0.00 0.00 25 1005.4
20260505113516 27 172 12.9 30.6 0.00 0.00 0.00 25 1005.6
20260505112524 27 147 9.7 25.7 0.00 0.00 0.00 26 1005.5
20260505111516 26 148 11.3 24.1 0.00 0.00 0.00 26 1005.7
20260505110524 26 160 9.7 20.9 0.00 0.00 0.00 26 1005.8
20260505101524 24 327 3.2 8.0 0.00 0.00 0.00 39 1006.4
20260505100516 23 99 3.2 9.7 0.00 0.00 0.00 41 1006.7
20260505095524 23 31 3.2 11.3 0.00 0.00 0.00 42 1006.9
20260505094515 22 74 3.2 8.0 0.00 0.00 0.00 44 1007.1
20260505093524 21 19 3.2 9.7 0.00 0.00 0.00 45 1007.3
20260505092516 21 39 3.2 9.7 0.00 0.00 0.00 46 1007.4
20260505091524 20 30 4.8 9.7 0.00 0.00 0.00 46 1007.6
20260505090517 20 50 4.8 9.7 0.00 0.00 0.00 47 1007.7
20260505085523 20 59 3.2 9.7 0.00 0.00 0.00 48 1007.7
20260505084515 19 48 4.8 9.7 0.00 0.00 0.00 48 1007.8
20260505083525 19 19 3.2 9.7 0.00 0.00 0.00 48 1007.9
20260505082516 20 86 4.8 11.3 0.00 0.00 0.00 46 1007.9
20260505081524 20 72 4.8 9.7 0.00 0.00 0.00 47 1008.0
20260505080516 19 74 3.2 9.7 0.00 0.00 0.00 48 1008.0
20260505075524 18 104 4.8 6.4 0.00 0.00 0.00 48 1008.0
20260505074524 18 54 3.2 6.4 0.00 0.00 0.00 49 1008.1
20260505073516 17 111 3.2 8.0 0.00 0.00 0.00 50 1008.2
20260505072524 17 136 6.4 9.7 0.00 0.00 0.00 50 1008.2
20260505071516 17 124 6.4 8.0 0.00 0.00 0.00 50 1008.2
20260505070524 17 125 3.2 8.0 0.00 0.00 0.00 49 1008.2
20260505065516 15 125 1.6 3.2 0.00 0.00 0.00 56 1008.3
20260505064524 13 153 0.0 3.2 0.00 0.00 0.00 62 1008.2
20260505063516 13 128 1.6 3.2 0.00 0.00 0.00 63 1008.3
20260505062524 13 130 1.6 3.2 0.00 0.00 0.00 63 1008.1
20260505061525 13 111 1.6 3.2 0.00 0.00 0.00 63 1008.1
20260505060525 13 114 0.0 3.2 0.00 0.00 0.00 62 1008.0
20260505055516 13 135 1.6 3.2 0.00 0.00 0.00 61 1008.1
20260505054524 13 131 3.2 4.8 0.00 0.00 0.00 62 1008.1
20260505053516 13 141 3.2 6.4 0.00 0.00 0.00 62 1008.0
20260505052524 13 119 3.2 6.4 0.00 0.00 0.00 63 1008.0
20260505051525 13 82 3.2 4.8 0.00 0.00 0.00 61 1007.9
20260505050517 13 83 1.6 4.8 0.00 0.00 0.00 60 1007.9
20260505041525 10 116 3.2 6.4 0.00 0.00 0.00 71 1007.8
20260505040516 10 91 3.2 6.4 0.00 0.00 0.00 70 1007.9
20260505035524 10 22 3.2 4.8 0.00 0.00 0.00 70 1007.9
20260505034525 10 8 1.6 6.4 0.00 0.00 0.00 70 1007.9
20260505033517 10 56 1.6 4.8 0.00 0.00 0.00 73 1007.9
20260505032524 10 142 1.6 3.2 0.00 0.00 0.00 72 1008.1
20260505031517 10 112 4.8 6.4 0.00 0.00 0.00 72 1008.2
20260505030524 10 87 0.0 4.8 0.00 0.00 0.00 70 1008.1
20260505025517 11 114 1.6 3.2 0.00 0.00 0.00 69 1008.1
20260505024525 11 168 3.2 4.8 0.00 0.00 0.00 68 1008.2
20260505023516 11 144 1.6 4.8 0.00 0.00 0.00 69 1008.1
20260505022525 10 143 3.2 6.4 0.00 0.00 0.00 70 1008.2
20260505021517 10 105 3.2 6.4 0.00 0.00 0.00 70 1008.3
20260505020525 10 133 1.6 4.8 0.00 0.00 0.00 70 1008.2
20260505015516 10 129 1.6 3.2 0.00 0.00 0.00 69 1008.4
20260505014517 11 130 1.6 4.8 0.00 0.00 0.00 68 1008.5
20260505013517 11 103 1.6 3.2 0.00 0.00 0.00 67 1008.5
20260505012525 11 127 1.6 6.4 0.00 0.00 0.00 67 1008.4
20260505011517 11 133 1.6 3.2 0.00 0.00 0.00 67 1008.5
20260505010525 11 104 0.0 3.2 0.00 0.00 0.00 67 1008.6
20260505005517 11 112 1.6 3.2 0.00 0.00 0.00 67 1008.6
20260505004525 11 117 0.0 1.6 0.00 0.00 0.00 66 1008.7
20260505003517 12 97 0.0 3.2 0.00 0.00 0.00 64 1008.8
20260505002525 12 122 1.6 3.2 0.00 0.00 0.00 63 1008.8
20260505001525 12 74 0.0 3.2 0.00 0.00 0.00 60 1008.9
20260505000518 13 95 1.6 3.2 0.00 0.00 0.00 58 1009.0